Miscellaneous Local Product
Issued by NWS Hastings, NE

Home | Current Version | Previous Version | Graphics & Text | Print | Product List | Glossary On
Versions: 1 2 3 4 5 6 7 8 9 10 11 12 13 14 15 16 17 18 19 20 21 22 23 24 25 26 27 28 29 30 31 32 33 34 35 36 37 38 39 40 41 42 43 44 45 46 47 48 49 50
000
AXUS43 KGID 020402
MISGRI

GID CWA HOURLY WEATHER ROUNDUP
NATIONAL WEATHER SERVICE HASTINGS NE
1100 PM CDT FRI MAY 01 2015

NOTE: "FAIR" INDICATES FEW OR NO CLOUDS BELOW 12,000 FEET WITH NO
SIGNIFICANT WEATHER AND/OR OBSTRUCTIONS TO VISIBILITY.

...SOUTH CENTRAL NEBRASKA...

CITY           SKY/WX    TMP DP  RH WIND       PRES   REMARKS
GRAND ISLAND   MOCLDY    61  49  64 SE5       30.00R
HASTINGS       CLOUDY    66  53  63 S8        30.00R
KEARNEY        CLOUDY    64  50  59 SE5       30.01R
ORD            PTCLDY    52  45  77 SW3       29.99R
YORK           PTCLDY    63  50  63 S7        30.00R
AURORA         CLOUDY    65  51  58 S7        30.00R
LEXINGTON      CLOUDY    65  53  63 SE5       30.00R
HOLDREGE       CLOUDY    62  51  65 SE6       30.00R
HEBRON         CLOUDY    66  48  52 S9        30.00R

...NEBRASKA PANHANDLE...

CITY           SKY/WX    TMP DP  RH WIND       PRES   REMARKS
CHADRON        CLEAR     61  46  57 S13       29.96R
ALLIANCE       CLEAR     51  46  83 S10       30.00R
SCOTTSBLUFF    PTCLDY    59  47  64 S10       30.02R
SIDNEY         MOCLDY    53  47  79 SW10      30.05S

...WESTERN AND NORTH CENTRAL NEBRASKA...

CITY           SKY/WX    TMP DP  RH WIND       PRES   REMARKS
VALENTINE      CLEAR     58  42  55 SE6       29.98R
AINSWORTH      CLEAR     51  42  71 SE5       29.99R
ONEILL         CLEAR     58  47  65 E6        29.99S
BROKEN BOW     MOCLDY    57  47  69 CALM      30.00R
IMPERIAL       CLOUDY    64  50  60 W14       30.03R
NORTH PLATTE   CLOUDY    58  51  78 E5        30.00S
MCCOOK         CLOUDY    66  49  54 E5        29.98F

...EASTERN NEBRASKA...

CITY           SKY/WX    TMP DP  RH WIND       PRES   REMARKS
NORFOLK        CLEAR     53  46  77 SE7       29.99F
SO SIOUX CITY  CLEAR     53  48  83 E7        30.01F
TEKAMAH        PTCLDY    53  46  77 E5        30.01S
COLUMBUS       MOCLDY    55  43  62 E7        30.02R
ALBION         PTCLDY    58  46  66 SE3       30.00R
OMAHA EPPLEY   PTCLDY    57  45  64 S8        30.01S
OFFUTT AFB     CLEAR     60  44  56 SE6       30.01S
MILLARD        PTCLDY    60  45  57 CALM      30.01S
LINCOLN        PTCLDY    58  47  66 S7        30.00S
NEBRASKA CITY  CLOUDY    64  33  32 S10       30.02S
BEATRICE       LGT RAIN  65  48  53 SE7       30.00S
FALLS CITY     MOCLDY    62  42  47 SE8       30.03S

...NORTHERN KANSAS...

CITY           SKY/WX    TMP DP  RH WIND       PRES   REMARKS
GOODLAND       CLOUDY    58  49  72 W7        30.05R
HILL CITY      MOCLDY    68  47  46 S10       29.99S
NORTON         CLEAR     68  45  42 SE8       29.98F
PHILLIPSBURG   PTCLDY    66  52  59 SE6       29.99S
SMITH CENTER   CLOUDY    64  50  59 SE10      30.01S
BELOIT         CLEAR     63  50  63 S6        30.00S
HAYS           MOCLDY    64  48  55 S13       30.03R
RUSSELL        MOCLDY    64  51  62 S12       30.01R
CONCORDIA      PTCLDY    67  47  48 S13       30.01R
SALINA         CLOUDY    61  50  67 S6        30.03R
TOPEKA         PTCLDY    60  46  59 CALM      30.06R



USA.gov is the U.S. government's official web portal to all federal, state and local government web resources and services.